JQ1YUX-13 Tokyo Ota-ku JP current weather conditions

sailwx.info

Wind from 184

Air temperature 16.7° C
Dewpoint 9.6° C

Last reported at 2015-Mar-28 09:47 UTC.
Time now 2015-Mar-28 11:06 UTC

Location: N 35°35' E 139°40'.
View on Google Maps.

See reports from other nearby stations

  
Tides and Currents Weather Stations Pressure Air Temp Water Temp Dewpoint Dewpoint Depression Visibility Wind Speed Wind Dir Waves Ship Positions
date/time (UTC)wind fromknots sea level pressurealtimeterstation pressurevisibilityair tempwater tempwave heightnotes
2015-Mar-28 10:47 178 16.1
2015-Mar-28 10:39 221 4 gusting 9 16.1
2015-Mar-28 10:17 224 2 gusting 4 16.7
2015-Mar-28 10:09 209 16.7
2015-Mar-28 09:47 184 16.7
2015-Mar-28 09:39 164 17.2
2015-Mar-28 09:17 150 5 gusting 8 17.2
2015-Mar-28 09:09 138 2 gusting 7 17.8
2015-Mar-28 08:47 190 1 gusting 5 18.3
2015-Mar-28 08:39 221 1 gusting 2 18.3
2015-Mar-28 08:17 187 2 gusting 6 19.4
2015-Mar-28 08:09 232 2 gusting 4 19.4
2015-Mar-28 07:47 186 20.0
2015-Mar-28 07:39 181 20.0
2015-Mar-28 07:17 207 20.0
2015-Mar-28 07:09 191 20.0
2015-Mar-28 06:47 229 20.0
2015-Mar-28 06:39 196 20.0
2015-Mar-28 06:17 184 19.4
2015-Mar-28 06:09 223 0 gusting 0 19.4
2015-Mar-28 05:47 180 19.4
2015-Mar-28 05:39 207 19.4
2015-Mar-28 05:17 207 1 gusting 6 19.4
2015-Mar-28 05:09 180 1 gusting 6 18.9
2015-Mar-28 04:47 206 1 gusting 4 20.0
2015-Mar-28 04:39 172 19.4
2015-Mar-28 04:17 266 19.4
2015-Mar-28 03:47 218 18.3
2015-Mar-28 03:39 190 17.8
2015-Mar-28 03:17 206 0 gusting 4 18.3
2015-Mar-28 03:09 214 2 gusting 6 17.8
2015-Mar-28 02:47 227 17.8
2015-Mar-28 02:39 227 17.8
2015-Mar-28 02:17 229 17.2
2015-Mar-28 02:09 294 16.7
2015-Mar-28 01:47 294 16.1
2015-Mar-28 01:39 294 15.6
2015-Mar-28 01:17 298 15.6
2015-Mar-28 01:09 298 15.0
2015-Mar-28 00:47 298 14.4
2015-Mar-28 00:39 298 13.9
2015-Mar-28 00:17 298 12.8
2015-Mar-28 00:09 298 12.8
2015-Mar-27 23:47 298 11.7
2015-Mar-27 23:39 336 11.7
2015-Mar-27 23:17 336 11.1
2015-Mar-27 23:09 336 10.6
2015-Mar-27 22:47 284 10.0
2015-Mar-27 22:39 284 10.0
2015-Mar-27 22:17 283 9.4
2015-Mar-27 22:09 283 8.9
2015-Mar-27 21:47 284 8.3
2015-Mar-27 21:39 283 8.3
2015-Mar-27 21:17 282 8.3
2015-Mar-27 21:09 284 8.3
2015-Mar-27 20:47 283 8.3
2015-Mar-27 20:39 283 8.3
2015-Mar-27 20:17 284 8.3
2015-Mar-27 20:09 284 8.9
2015-Mar-27 19:47 283 8.9
2015-Mar-27 19:39 283 8.9
2015-Mar-27 19:17 283 8.9
2015-Mar-27 19:09 283 8.9
2015-Mar-27 18:47 283 8.9
2015-Mar-27 18:39 283 8.9
2015-Mar-27 18:17 283 9.4
2015-Mar-27 18:09 283 8.9
2015-Mar-27 17:47 284 9.4
2015-Mar-27 17:39 283 9.4
2015-Mar-27 17:17 283 0 gusting 3 10.0
2015-Mar-27 17:09 284 10.0
2015-Mar-27 16:47 283 11.1
2015-Mar-27 16:39 287 11.7
2015-Mar-27 16:17 225 11.7
2015-Mar-27 16:09 225 11.7
2015-Mar-27 15:47 225 11.7
2015-Mar-27 15:39 225 11.7
2015-Mar-27 15:17 225 12.2
2015-Mar-27 15:09 225 12.2
2015-Mar-27 14:47 229 12.2
2015-Mar-27 14:39 188 12.2
2015-Mar-27 14:17 188 12.2
2015-Mar-27 14:09 188 12.8
2015-Mar-27 13:47 188 12.8
2015-Mar-27 13:39 188 12.8
2015-Mar-27 13:17 188 13.3
2015-Mar-27 13:09 188 13.3
2015-Mar-27 12:47 223 0 gusting 3 13.3
2015-Mar-27 12:39 186 0 gusting 3 13.3
2015-Mar-27 12:17 184 13.3
2015-Mar-27 12:09 179 13.3
2015-Mar-27 11:47 176 13.9
2015-Mar-27 11:39 200 13.9
2015-Mar-27 11:17 229 1 gusting 6 14.4
2015-Mar-27 11:09 209 1 gusting 5 14.4
2015-Mar-27 10:47 219 1 gusting 5 14.4
2015-Mar-27 10:39 207 1 gusting 4 14.4
2015-Mar-27 10:17 196 0 gusting 5 13.9
2015-Mar-27 10:09 172 13.9
2015-Mar-27 09:47 173 14.4
2015-Mar-27 09:39 167 14.4
2015-Mar-27 09:17 200 0 gusting 1 14.4
2015-Mar-27 09:09 206 2 gusting 10 14.4
2015-Mar-27 08:47 231 2 gusting 6 15.0
2015-Mar-27 08:39 190 0 gusting 6 15.0
2015-Mar-27 08:17 148 0 gusting 5 16.1
2015-Mar-27 08:09 178 2 gusting 7 16.1
2015-Mar-27 07:47 129 2 gusting 6 16.7
2015-Mar-27 07:39 167 0 gusting 5 17.2
2015-Mar-27 07:17 185 3 gusting 6 17.2
2015-Mar-27 07:09 225 4 gusting 9 17.2
2015-Mar-27 06:47 163 2 gusting 6 17.2
2015-Mar-27 06:39 205 1 gusting 5 17.8
2015-Mar-27 06:17 153 17.8
2015-Mar-27 06:09 170 0 gusting 6 18.3
2015-Mar-27 05:47 200 1 gusting 6 18.3
2015-Mar-27 05:39 202 2 gusting 8 18.3
2015-Mar-27 05:17 179 3 gusting 7 18.3
2015-Mar-27 05:09 199 0 gusting 5 18.9
2015-Mar-27 04:47 234 0 gusting 1 17.8
2015-Mar-27 04:39 194 4 gusting 7 18.3
2015-Mar-27 04:17 160 3 gusting 6 17.8
2015-Mar-27 04:09 184 17.8
2015-Mar-27 03:47 206 0 gusting 5 17.8
2015-Mar-27 03:39 213 0 gusting 6 17.2
2015-Mar-27 03:17 205 16.7
2015-Mar-27 03:09 173 2 gusting 7 16.7
2015-Mar-27 02:47 204 16.1
2015-Mar-27 02:39 184 16.7
2015-Mar-27 02:17 212 16.1
2015-Mar-27 02:09 178 16.1
2015-Mar-27 01:47 169 15.6
2015-Mar-27 01:39 207 1 gusting 5 15.6
2015-Mar-27 01:17 184 14.4
2015-Mar-27 01:09 173 14.4
2015-Mar-27 00:47 227 13.3
2015-Mar-27 00:39 229 0 gusting 5 13.3
2015-Mar-27 00:17 288 12.2
2015-Mar-27 00:09 207 12.2
2015-Mar-26 23:47 183 11.1
2015-Mar-26 23:39 248 10.6
2015-Mar-26 23:17 248 8.3
2015-Mar-26 23:09 248 8.3
2015-Mar-26 22:47 248 7.2
2015-Mar-26 22:39 248 6.7
2015-Mar-26 22:17 248 6.1
2015-Mar-26 22:09 248 5.6
2015-Mar-26 21:47 246 5.0
2015-Mar-26 21:39 248 5.0
2015-Mar-26 21:17 248 5.0
2015-Mar-26 21:09 248 5.0
2015-Mar-26 20:47 248 5.0
2015-Mar-26 20:39 248 5.0
2015-Mar-26 20:17 248 5.0
2015-Mar-26 20:09 248 5.0
2015-Mar-26 19:47 248 5.6
2015-Mar-26 19:39 248 5.6
2015-Mar-26 19:17 248 5.6
2015-Mar-26 19:09 248 5.6
2015-Mar-26 18:47 248 5.6
2015-Mar-26 18:39 248 5.6
2015-Mar-26 18:17 248 5.6
2015-Mar-26 18:09 248 6.1
2015-Mar-26 17:47 248 6.1
2015-Mar-26 17:39 248 6.7
2015-Mar-26 17:17 248 6.7
2015-Mar-26 17:09 248 6.7
2015-Mar-26 16:47 248 6.7
2015-Mar-26 16:39 248 6.7
2015-Mar-26 16:17 248 7.2
2015-Mar-26 16:09 248 7.2
2015-Mar-26 15:47 248 7.2
2015-Mar-26 15:39 246 7.2
2015-Mar-26 15:17 247 7.8
2015-Mar-26 15:09 248 7.8
2015-Mar-26 14:47 248 8.3
2015-Mar-26 14:39 248 8.3
2015-Mar-26 14:17 248 8.9
2015-Mar-26 14:09 248 8.9
2015-Mar-26 13:47 248 9.4
2015-Mar-26 13:39 248 9.4
2015-Mar-26 13:17 291 9.4
2015-Mar-26 13:09 291 10.0
2015-Mar-26 12:47 262 10.0
2015-Mar-26 12:39 265 0 gusting 1 10.6
2015-Mar-26 12:17 213 10.6
2015-Mar-26 12:09 213 10.6
2015-Mar-26 11:47 211 10.6
2015-Mar-26 11:39 213 10.6
2015-Mar-26 11:17 212 11.1
2015-Mar-26 11:09 212 10.6